Regional Weather Roundup
Issued by NWS

Home | Current Version | Previous Version | Text Only | Print | Product List | Glossary Off
Versions: 1 2 3 4 5 6 7 8 9 10 11 12 13 14 15 16 17 18 19 20 21 22 23 24 25 26 27 28 29 30 31 32 33 34 35 36 37 38 39 40 41 42 43 44 45 46 47 48 49 50

000
ASUS43 KOAX 311810
RWRNE

WEATHER ROUNDUP FOR NEBRASKA
NATIONAL WEATHER SERVICE OMAHA NE
100 PM CDT THU JUL 31 2014

NOTES: SATELLITE DATA IS BEING USED TO AUGMENT CLOUD COVER ABOVE
       12000 FEET.
       "FAIR" INDICATES FEW OR NO CLOUDS BELOW 12,000 FEET WITH NO
       SIGNIFICANT WEATHER AND/OR OBSTRUCTIONS TO VISIBILITY.

  * THESE STATIONS DO NOT REPORT WEATHER SUCH AS RAIN...SNOW OR FOG.

NEZ001>004-019>022-054>056-311900-
NEBRASKA PANHANDLE

CITY           SKY/WX    TMP DP  RH WIND       PRES   REMARKS
SCOTTSBLUFF    SUNNY     83  53  35 CALM      30.22F
6HR MIN TEMP:  53; 6HR MAX TEMP:  83;

ALLIANCE       SUNNY     82  39  21 MISG      30.20F
6HR MIN TEMP:  49; 6HR MAX TEMP:  83;

CHADRON        SUNNY     83  50  31 MISG      30.18F
6HR MIN TEMP:  50; 6HR MAX TEMP:  83;

KIMBALL        SUNNY     76  46  33 S5        30.25F
SIDNEY         SUNNY     82  44  26 NW7       30.23F
6HR MIN TEMP:  55; 6HR MAX TEMP:  83;

$$

NEZ057>060-069>072-079>082-311900-
SOUTHWEST NEBRASKA

CITY           SKY/WX    TMP DP  RH WIND       PRES   REMARKS
NORTH PLATTE   SUNNY     83  59  44 SW8       30.12F
6HR MIN TEMP:  54; 6HR MAX TEMP:  84;

IMPERIAL       SUNNY     80  53  39 W10       30.18F
6HR MIN TEMP:  59; 6HR MAX TEMP:  81;

LEXINGTON      SUNNY     87  56  33 W10       30.10F
MCCOOK         SUNNY     84  51  31 W12       30.14F
6HR MIN TEMP:  59; 6HR MAX TEMP:  84;

OGALLALA       MOSUNNY   80  49  33 NW9       30.16F
$$

NEZ005>010-023>029-035>040-094-311900-
NORTH CENTRAL NEBRASKA

CITY           SKY/WX    TMP DP  RH WIND       PRES   REMARKS
VALENTINE      SUNNY     84  52  33 N13       30.12S
6HR MIN TEMP:  55; 6HR MAX TEMP:  85;

AINSWORTH      SUNNY     81  56  42 N10       30.11S THUNDER
BROKEN BOW     SUNNY     86  56  35 NW10      30.09F
6HR MIN TEMP:  55; 6HR MAX TEMP:  86;

O`NEILL        SUNNY     81  63  54 NW6       30.07S
ORD            SUNNY     86  55  34 W10       30.04F
6HR MIN TEMP:  58; 6HR MAX TEMP:  86;

THEDFORD       SUNNY     84  51  31 NW12G18   30.13F
$$

NEZ041-046>049-061>064-073>077-083>087-311900-
SOUTH CENTRAL NEBRASKA

CITY           SKY/WX    TMP DP  RH WIND       PRES   REMARKS
GRAND ISLAND   SUNNY     84  62  47 S14       30.07F
6HR MIN TEMP:  61; 6HR MAX TEMP:  84;

AURORA         SUNNY     82  60  46 S12       30.08F
HASTINGS       MOSUNNY   83  57  41 SW10      30.09F
6HR MIN TEMP:  63; 6HR MAX TEMP:  84;

HEBRON         SUNNY     82  50  33 SW9       30.11F
HOLDREGE       MOSUNNY   83  57  41 W12       30.11F
KEARNEY *      SUNNY     84  57  39 SW16      30.09F
YORK           SUNNY     81  61  50 SW14      30.09F
$$

NEZ011>018-030>034-042>045-311900-
NORTHEAST NEBRASKA

CITY           SKY/WX    TMP DP  RH WIND       PRES   REMARKS
NORFOLK        PTSUNNY   80  60  50 SE12      30.07F
6HR MIN TEMP:  57; 6HR MAX TEMP:  80;

ALBION         MOSUNNY   82  59  44 S12G18    30.05F
BLAIR          MOSUNNY   76  56  49 S3        30.09S
COLUMBUS *     MOSUNNY   64  61  88 S13       30.07F
FREMONT        SUNNY     82  57  42 SE8       30.09F
TEKAMAH        MOSUNNY   79  57  46 E5        30.08F
6HR MIN TEMP:  54; 6HR MAX TEMP:  79;

WAYNE          PTSUNNY   78  63  60 SE7       30.08F
$$

NEZ050>053-065>068-078-088>093-311900-
SOUTHEAST NEBRASKA

CITY           SKY/WX    TMP DP  RH WIND       PRES   REMARKS
LINCOLN        SUNNY     84  54  35 SW10      30.09F
6HR MIN TEMP:  55; 6HR MAX TEMP:  84;

OMAHA EPPLEY   PTSUNNY   80  53  39 S9        30.08F
6HR MIN TEMP:  61; 6HR MAX TEMP:  82;

BEATRICE       SUNNY     80  56  42 S9        30.10F
FALLS CITY     MOSUNNY   83  55  38 VRB5      30.10F
6HR MIN TEMP:  55; 6HR MAX TEMP:  83;

NEBRASKA CITY  SUNNY     80  53  38 SW9       30.11S
PLATTSMOUTH    PTSUNNY   79  51  37 S5        30.10F
$$

NEZ044-045-051>053-067-311900-
OMAHA AREA

CITY           SKY/WX    TMP DP  RH WIND       PRES   REMARKS
OMAHA EPPLEY   PTSUNNY   80  53  39 S9        30.08F
6HR MIN TEMP:  61; 6HR MAX TEMP:  82;

BLAIR          MOSUNNY   76  56  49 S3        30.09S
FREMONT        SUNNY     82  57  42 SE8       30.09F
MILLARD        MOSUNNY   81  58  44 SE8       30.08F
OFFUTT AFB     MOSUNNY   80  57  44 S8        30.08F
PLATTSMOUTH    PTSUNNY   79  51  37 S5        30.10F
WAHOO          FAIR      83  54  37 SW7       30.08F
$$


USA.gov is the U.S. government's official web portal to all federal, state and local government web resources and services.